Presure
175 178 187 145 173 149 160 140 93 100 161 99 103 95 171 88 84 71 132 136 220 96 105 143 240 183 227 82 292 89 267 83 120 326 249 234 217 235 220 230 220 226 239
135 163 172 183 137 134 166 148 129 85 124 122 83 69 96 114 88 77 67 75 81 254 287 251 287 312 335 347 331 80 284 332 81 282 264 336 296 270 240 224 220 226 217
182 174 155 124 122 88 157 169 84 153 118 95 80 85 136 126 204 65 219 259 246 273 67 329 330 317 322 278 429 424 369 328 261 270 265 257 255 284 307 322 318 318 311
166 141 170 153 141 103 130 75 84 101 79 89 64 186 202 91 98 206 265 244 236 284 277 270 269 276 309 196 182 175 170 170 216 247 255 302 301 246 298 300 291 311 312
84 131 139 82 82 81 84 87 119 185 143 178 179 173 194 210 205 255 250 252 249 254 267 266 265 272 311 279 310 278 187 229 299 296 297 233 226 197 178 187 187 191 246
83 72 66 83 88 140 160 92 190 195 187 183 187 220 188 194 252 246 240 249 218 241 267 232 242 296 301 310 303 291 302 313 291 287 278 288 280 294 274 288 285 260 275
87 82 83 118 151 190 172 190 191 184 197 182 163 188 192 206 145 238 234 219 248 252 282 232 309 292 293 288 290 295 287 282 277 282 274 281 279 262 260 253 263 263 260
136 134 172 176 185 188 155 183 174 170 188 182 205 201 189 200 255 228 225 217 177 230 241 307 308 295 251 291 278 283 280 275 270 251 264 255 252 241 241 242 238 249 242
182 186 187 188 183 185 179 184 179 171 212 198 195 184 208 204 240 234 217 162 211 209 228 230 294 245 291 285 281 280 266 269 257 255 242 242 239 236 240 229 235 225 225
192 195 191 182 178 182 180 171 186 174 199 208 186 214 203 202 241 241 222 238 207 212 207 207 212 281 293 288 286 271 268 253 253 241 233 234 234 239 233 233 220 221 215
175 172 182 191 187 187 169 176 171 190 166 221 198 195 195 236 236 233 222 205 206 196 202 205 204 226 277 285 283 272 254 254 242 242 237 228 231 226 220 214 230 212 221
182 185 182 183 178 181 173 178 171 193 176 225 210 229 230 237 229 216 221 228 199 194 186 194 206 197 241 285 287 270 255 253 239 230 233 238 216 228 216 213 219 223 214
173 182 192 168 185 136 182 167 194 175 213 199 233 238 178 221 227 227 216 222 211 194 194 177 189 202 204 201 246 274 236 253 242 219 236 236 207 227 217 215 214 195 225
185 194 171 161 176 187 161 192 199 151 212 204 246 180 231 235 224 219 213 216 200 216 190 209 199 198 195 196 202 260 253 236 243 219 240 224 227 226 215 219 208 216 210
188 183 188 142 195 139 181 156 195 226 199 239 228 206 235 205 211 200 196 200 205 202 181 192 192 194 194 193 190 194 228 267 219 218 216 213 211 215 225 200 209 207 218
179 185 198 192 166 146 149 200 217 246 239 226 191 210 226 201 201 214 225 223 198 188 195 190 191 185 185 186 191 184 183 193 255 205 250 222 219 212 219 212 204 203 215
175 196 153 169 208 194 212 221 221 236 231 226 224 221 218 206 212 229 222 191 205 189 240 223 214 187 204 180 180 194 177 181 192 231 221 194 226 207 204 202 219 210 212
191 184 185 210 213 210 225 237 234 179 213 196 200 217 205 191 202 238 200 201 256 250 226 249 198 266 180 177 213 181 186 171 176 183 194 197 186 200 180 171 214 192 205
193 203 206 215 223 240 179 185 231 222 220 205 206 229 224 222 212 216 221 210 206 181 167 204 213 157 191 209 173 179 223 199 185 182 182 199 186 197 182 175 206 211 211
181 166 167 156 223 177 188 217 206 205 214 207 203 216 217 197 205 218 217 208 189 231 212 216 222 212 214 239 169 187 192 191 217 178 163 166 165 187 190 186 186 180 200
223 222 218 216 206 202 207 192 204 200 218 218 214 198 214 187 173 183 227 226 223 215 194 220 234 231 199 182 207 165 205 161 174 221 195 180 191 168 170 196 210 179 155
216 226 229 226 227 177 210 220 207 207 191 165 205 200 207 216 152 195 201 178 192 229 220 247 245 232 215 234 221 200 202 163 160 226 198 182 169 163 216 169 183 195 182
173 204 206 208 164 197 205 181 183 214 207 180 201 218 190 210 213 198 184 214 156 214 224 221 237 210 232 243 201 196 222 171 208 150 227 185 228 235 155 234 220 228 179
212 214 212 222 212 227 185 193 209 186 208 233 223 231 228 228 230 201 207 160 232 237 218 203 242 234 247 240 207 237 171 204 193 206 251 262 167 195 168 178 220 191 204
161 188 227 170 204 205 205 206 226 224 215 231 233 235 249 246 249 238 225 220 228 185 237 208 252 186 239 225 243 244 206 245 238 219 233 237 268 231 180 149 219 186 169
231 227 234 209 214 147 203 235 240 250 160 244 242 225 240 241 247 219 188 239 241 249 190 246 264 261 211 272 183 182 248 178 244 209 215 162 228 235 210 241 194 222 173
Wind_Speed
58 60 64 51 56 44 53 46 35 43 54 47 47 31 64 38 36 29 59 46 73 28 41 50 68 62 63 41 62 61 59 52 43 53 68 71 73 73 77 73 77 75 72
46 55 59 63 46 46 57 53 54 30 48 45 26 22 46 61 46 41 22 42 49 61 55 61 51 55 51 52 54 54 53 45 50 40 58 30 45 56 72 75 74 75 78
67 63 52 50 52 34 52 57 28 50 47 42 42 44 55 64 70 20 73 64 59 52 22 42 39 41 42 47 20 12 19 29 45 44 45 48 51 44 38 39 41 44 47
61 55 62 54 52 44 50 32 37 47 31 40 20 64 72 33 48 72 68 61 57 48 45 44 44 43 35 51 54 54 54 53 43 44 43 23 25 50 28 30 33 28 27
36 52 52 36 38 38 42 46 53 76 61 70 66 66 69 75 76 67 62 55 51 50 45 44 42 39 29 32 20 25 52 37 18 18 17 32 34 44 51 53 54 56 34
42 25 24 43 49 57 60 47 72 73 74 70 70 73 69 71 57 62 57 52 52 50 46 47 40 31 25 23 20 17 14 11 13 13 15 12 14 8 14 8 9 20 11
51 49 47 60 66 73 70 74 73 75 75 72 59 71 69 71 60 55 54 48 47 51 44 40 29 29 25 21 18 13 10 11 13 11 13 11 13 12 11 12 10 8 7
63 66 69 71 75 75 71 76 74 65 75 76 75 72 71 71 47 51 53 48 56 45 47 35 28 26 27 20 17 13 10 12 13 15 16 14 12 12 12 10 11 6 9
74 73 72 73 76 78 79 78 79 68 68 75 72 65 72 70 52 44 51 59 45 42 43 41 36 37 24 20 16 13 13 16 17 18 15 12 12 12 12 13 9 15 16
73 74 74 76 79 81 82 64 79 73 77 73 69 74 72 63 57 48 44 42 43 42 40 37 31 37 26 21 15 15 17 17 19 16 14 14 14 14 11 10 15 15 17
77 78 78 79 81 82 71 79 71 80 57 77 73 71 67 60 57 53 41 52 44 38 40 40 36 35 30 25 17 18 17 22 18 18 16 16 14 15 15 19 14 17 16
78 79 81 82 83 81 79 83 67 83 70 74 74 74 64 57 57 52 49 45 42 44 40 39 40 33 32 27 21 21 20 23 20 18 18 19 19 18 18 20 18 17 19
81 82 83 80 84 65 84 68 88 73 83 76 72 69 60 59 57 54 53 50 39 41 45 43 39 38 35 31 27 24 21 25 22 22 22 22 22 21 19 20 21 25 21
87 87 82 69 86 87 61 89 86 70 84 79 72 60 68 62 55 54 50 51 43 46 41 38 39 38 35 34 31 24 29 23 27 22 26 22 23 23 22 22 23 24 22
91 89 91 71 91 68 86 64 85 95 85 80 81 71 70 56 52 46 45 46 47 46 44 35 43 39 37 35 33 32 27 39 25 26 27 25 26 25 26 26 24 25 27
92 95 98 98 83 71 71 90 97 84 83 78 71 72 71 61 56 58 61 56 49 51 54 41 39 44 43 41 39 35 34 33 37 32 39 31 30 31 29 28 28 29 30
90 103 72 81 107 94 102 107 98 88 83 83 83 82 78 68 71 75 66 57 55 55 64 66 47 47 43 47 44 43 42 39 40 35 33 34 36 33 34 34 33 34 33
105 101 100 111 111 107 112 95 92 82 87 83 81 83 79 69 74 78 63 61 68 64 61 65 61 62 55 55 47 50 49 47 44 43 42 40 38 39 37 38 38 35 37
110 114 113 116 114 97 85 86 95 95 93 88 87 88 85 83 80 80 78 69 61 65 64 56 66 51 58 56 61 58 52 51 51 51 47 49 46 45 44 42 43 44 42
96 85 84 77 102 82 88 102 99 96 98 95 94 95 92 81 83 90 88 75 61 83 68 70 75 69 63 61 66 56 60 62 56 57 49 47 47 53 55 52 48 44 46
101 103 104 105 108 106 106 96 104 95 104 103 100 90 97 75 78 70 93 93 92 85 72 82 79 79 69 71 63 67 68 62 55 60 64 62 60 48 50 61 59 51 45
111 108 107 109 109 86 112 110 111 110 94 83 105 100 103 105 77 91 91 68 80 100 86 90 88 85 78 76 68 65 69 66 60 73 71 71 55 52 62 52 60 63 54
92 117 117 117 91 108 117 90 91 117 110 86 110 114 99 111 111 104 81 101 79 98 100 94 96 87 86 87 76 75 71 73 69 57 79 70 76 73 52 72 67 68 57
123 125 124 123 121 124 95 95 110 88 105 123 119 120 117 117 117 94 98 86 112 110 97 88 102 99 99 93 77 81 66 76 68 72 72 76 64 77 60 65 72 61 68
86 119 126 84 130 132 114 133 129 123 119 126 125 122 125 122 125 119 112 114 112 95 112 97 109 93 101 97 97 94 78 81 80 76 77 78 81 83 67 62 79 69 49
134 136 136 122 138 87 134 133 137 138 91 133 130 121 126 123 125 113 97 123 122 128 91 115 109 104 85 100 77 76 94 84 82 82 79 62 83 86 82 88 84 79 56
Wind_Direction
289 290 293 291 294 289 294 286 290 294 298 293 298 272 290 267 270 300 300 306 303 294 300 300 294 291 285 299 283 282 279 298 294 271 263 259 263 260 261 256 262 259 258
283 286 289 293 289 288 294 296 292 281 290 295 267 298 293 291 273 294 297 299 299 304 297 296 292 291 292 294 287 294 278 264 299 276 267 269 264 263 262 263 263 258 261
286 290 287 283 283 286 290 293 279 295 283 289 280 274 297 286 312 295 314 318 313 311 284 302 301 301 303 296 319 260 251 260 271 269 268 267 263 262 266 269 266 266 268
285 284 292 292 287 285 289 279 288 295 286 292 283 310 313 300 295 316 320 320 315 319 315 312 309 306 309 289 288 288 286 286 281 267 266 267 265 263 261 264 267 266 267
280 287 286 286 287 285 285 289 294 300 296 304 313 308 316 316 314 315 321 322 323 326 324 322 315 311 311 306 309 289 285 282 263 261 258 274 271 271 272 270 268 268 265
280 290 291 288 289 290 294 287 297 301 304 310 309 313 315 317 313 314 320 323 314 325 327 316 320 319 321 314 303 288 280 269 251 244 247 234 244 206 242 177 184 253 239
281 283 288 289 293 290 291 294 299 302 307 309 304 315 318 319 299 313 318 316 329 330 332 323 317 322 318 313 309 295 262 246 235 212 219 176 162 211 226 248 226 231 235
283 285 288 289 290 292 289 298 303 306 307 309 311 317 314 319 315 310 312 316 306 326 331 327 322 323 317 307 301 280 246 219 209 256 188 215 222 248 253 254 255 237 248
285 288 289 289 291 292 295 298 300 306 306 308 313 315 317 318 312 309 308 301 318 317 330 336 337 332 316 304 291 256 233 205 212 202 244 244 244 249 245 249 249 253 260
285 287 290 290 292 292 294 294 301 309 308 307 315 313 317 314 313 315 310 314 314 321 321 322 334 339 320 303 276 244 220 222 208 238 246 244 251 247 248 247 256 266 267
286 288 288 289 290 292 298 302 306 304 305 309 308 313 315 309 312 312 306 308 310 309 319 322 322 335 329 310 278 236 242 214 245 237 241 253 248 257 248 253 250 262 278
284 286 286 288 291 293 298 300 304 305 300 307 310 311 308 306 309 307 309 311 303 305 303 314 319 317 335 323 284 245 257 232 262 260 249 245 253 252 250 260 262 259 268
284 286 291 292 293 279 296 299 301 303 306 305 304 305 301 312 309 307 308 308 303 300 302 295 306 312 315 317 323 267 292 253 272 280 252 254 263 252 252 259 260 263 262
286 291 290 289 294 295 289 298 300 291 304 305 298 297 305 303 307 307 304 306 299 306 296 298 299 302 304 305 312 297 276 290 272 280 259 272 261 261 258 258 263 269 270
289 290 292 280 295 283 296 282 297 302 301 298 300 304 299 302 299 295 292 294 298 298 282 285 290 291 293 294 292 299 300 251 283 274 268 267 266 264 263 256 261 264 262
287 291 294 293 288 280 282 296 300 297 296 292 298 297 299 297 293 300 303 300 286 284 288 276 272 280 281 285 286 282 283 288 266 275 265 267 264 264 263 257 256 259 261
287 291 283 285 295 292 297 299 298 295 295 295 296 299 299 297 297 300 299 281 290 281 298 292 281 271 277 274 276 277 274 276 283 272 268 264 265 266 267 267 260 262 259
289 289 289 294 294 295 296 294 295 286 293 293 293 294 294 291 293 298 287 286 295 296 289 296 279 296 271 276 284 272 273 272 272 274 275 271 269 268 266 261 257 267 257
288 289 290 291 292 292 286 288 292 294 293 292 292 296 296 295 293 297 297 293 288 291 286 285 290 277 270 270 273 270 280 261 272 269 269 266 270 265 267 263 257 254 258
286 286 285 286 291 287 286 290 290 291 291 292 292 293 295 293 293 295 295 291 272 294 288 289 289 286 284 284 270 275 268 263 273 268 268 266 264 267 267 268 266 268 259
285 284 284 284 286 287 288 287 290 286 289 288 290 292 291 285 279 284 289 290 291 289 286 289 286 286 274 275 274 272 271 276 275 270 257 266 266 265 261 260 259 267 262
283 284 285 285 285 285 287 286 288 289 290 280 290 291 290 286 275 289 288 271 285 289 283 286 285 284 275 279 275 264 264 275 275 270 256 265 269 267 262 265 268 260 267
287 285 285 284 281 285 285 285 289 287 287 285 290 285 287 286 286 286 275 283 274 284 285 284 286 275 280 281 264 264 268 264 268 266 265 257 265 263 261 262 259 257 269
283 283 284 283 285 281 286 285 283 285 282 281 281 282 282 283 282 282 282 268 282 284 281 273 281 279 279 276 267 271 263 263 266 267 263 260 257 260 271 265 261 264 266
282 286 281 283 282 281 282 284 280 281 285 281 281 282 284 283 283 282 281 279 280 272 281 276 279 262 274 271 272 271 266 268 266 260 262 258 260 257 266 265 258 268 270
283 282 282 286 279 281 283 283 283 281 274 280 281 281 281 280 280 279 277 280 279 278 276 275 273 272 269 270 273 265 267 267 263 261 257 258 261 260 254 256 260 257 273